Location: Unspecified
(54.1780°N, 0.0000°E)
Time: 19:12:59
(UTC+00:00)

Explorer 7 - Pass Details

Date: 22 June 2019
Orbit: 485 x 680 km, 50.3° (Epoch: 20 August)

Event Time Altitude Azimuth Distance (km) Brightness Sun altitude
Rises 15:20:56 0° 276° (W) 2,983 11.3 42.0°
Reaches altitude 10° 15:24:43 10° 245° (WSW) 2,096 10.9 41.5°
Maximum altitude 15:26:31 12° 224° (SW) 1,973 10.6 41.3°
Drops below altitude 10° 15:28:19 10° 202° (SSW) 2,109 10.4 41.0°
Sets 15:32:10 0° 172° (S) 3,024 10.7 40.5°
